| time (UTC) | temp C | wind direction | speed KPH | gust KPH | rain 1hr cm | rain 24hr cm | rain mn cm | humidity % | barometer mb |
| 20260507124553 | 20 | 0 | 0.0 | 3.2 | 0.00 | 0.10 | 0.10 | 65 | 1016.2 |
| 20260507123055 | 20 | 0 | 0.0 | 6.4 | 0.00 | 0.10 | 0.10 | 68 | 1016.2 |
| 20260507121550 | 20 | 248 | 0.0 | 3.2 | 0.00 | 0.10 | 0.10 | 69 | 1016.4 |
| 20260507120100 | 20 | 0 | 0.0 | 6.4 | 0.00 | 0.10 | 0.10 | 66 | 1016.4 |
| 20260507114547 | 20 | 0 | 0.0 | 6.4 | 0.00 | 0.10 | 0.10 | 64 | 1016.5 |
| 20260507113053 | 20 | 0 | 0.0 | 4.8 | 0.00 | 0.10 | 0.10 | 67 | 1016.6 |
| 20260507111549 | 20 | 232 | 0.0 | 6.4 | 0.00 | 0.10 | 0.10 | 65 | 1016.5 |
| 20260507110103 | 20 | 269 | 1.6 | 9.7 | 0.00 | 0.10 | 0.10 | 69 | 1016.6 |
| 20260507104554 | 19 | 275 | 0.0 | 3.2 | 0.00 | 0.10 | 0.10 | 70 | 1016.6 |
| 20260507103052 | 18 | 0 | 0.0 | 4.8 | 0.00 | 0.10 | 0.10 | 73 | 1016.7 |
| 20260507101559 | 18 | 0 | 0.0 | 4.8 | 0.00 | 0.10 | 0.10 | 72 | 1017.1 |
| 20260507100053 | 18 | 0 | 0.0 | 6.4 | 0.00 | 0.10 | 0.10 | 74 | 1017.0 |
| 20260507094600 | 18 | 278 | 0.0 | 6.4 | 0.00 | 0.10 | 0.10 | 73 | 1017.0 |
| 20260507093050 | 17 | 0 | 0.0 | 3.2 | 0.00 | 0.10 | 0.10 | 75 | 1016.6 |
| 20260507091549 | 17 | 0 | 0.0 | 4.8 | 0.00 | 0.10 | 0.10 | 74 | 1016.7 |
| 20260507090050 | 17 | 0 | 0.0 | 4.8 | 0.00 | 0.10 | 0.10 | 76 | 1016.8 |
| 20260507084548 | 17 | 0 | 0.0 | 0.0 | 0.00 | 0.10 | 0.10 | 77 | 1017.1 |
| 20260507083049 | 16 | 0 | 0.0 | 3.2 | 0.00 | 0.10 | 0.10 | 78 | 1016.8 |
| 20260507081549 | 16 | 0 | 0.0 | 6.4 | 0.00 | 0.10 | 0.10 | 79 | 1016.9 |
| 20260507080054 | 15 | 0 | 0.0 | 3.2 | 0.00 | 0.10 | 0.10 | 80 | 1017.0 |
| 20260507074549 | 15 | 0 | 0.0 | 4.8 | 0.00 | 0.13 | 0.10 | 79 | 1017.2 |
| 20260507073116 | 14 | 0 | 0.0 | 3.2 | 0.00 | 0.13 | 0.10 | 79 | 1017.3 |
| 20260507071548 | 13 | 0 | 0.0 | 1.6 | 0.00 | 0.13 | 0.10 | 87 | 1017.2 |
| 20260507070047 | 14 | 0 | 0.0 | 6.4 | 0.00 | 0.13 | 0.10 | 86 | 1017.1 |
| 20260507064605 | 14 | 0 | 0.0 | 3.2 | 0.00 | 0.23 | 0.10 | 85 | 1016.8 |
| 20260507063110 | 13 | 0 | 0.0 | 3.2 | 0.00 | 0.23 | 0.10 | 82 | 1016.3 |
| 20260507061556 | 13 | 0 | 0.0 | 4.8 | 0.00 | 0.23 | 0.10 | 87 | 1016.5 |
| 20260507060052 | 12 | 0 | 0.0 | 0.0 | 0.00 | 0.23 | 0.10 | 91 | 1016.6 |
| 20260507054556 | 12 | 0 | 0.0 | 0.0 | 0.00 | 0.23 | 0.10 | 92 | 1016.7 |
| 20260507053055 | 11 | 0 | 0.0 | 0.0 | 0.00 | 0.23 | 0.10 | 93 | 1017.1 |
| 20260507051553 | 11 | 0 | 0.0 | 0.0 | 0.00 | 0.23 | 0.10 | 93 | 1016.8 |
| 20260507050058 | 11 | 0 | 0.0 | 0.0 | 0.00 | 0.23 | 0.10 | 93 | 1016.5 |
| 20260507044553 | 11 | 0 | 0.0 | 0.0 | 0.00 | 0.25 | 0.10 | 93 | 1016.6 |
| 20260507043052 | 11 | 0 | 0.0 | 0.0 | 0.00 | 0.25 | 0.10 | 93 | 1016.5 |
| 20260507041550 | 11 | 0 | 0.0 | 0.0 | 0.00 | 0.25 | 0.10 | 93 | 1016.4 |
| 20260507040105 | 11 | 0 | 0.0 | 0.0 | 0.00 | 0.25 | 0.10 | 92 | 1016.4 |
| 20260507034605 | 11 | 0 | 0.0 | 0.0 | 0.00 | 0.25 | 0.10 | 92 | 1016.3 |
| 20260507033104 | 11 | 0 | 0.0 | 0.0 | 0.00 | 0.25 | 0.10 | 92 | 1016.4 |
| 20260507031551 | 11 | 0 | 0.0 | 1.6 | 0.00 | 0.25 | 0.10 | 92 | 1016.3 |
| 20260507030048 | 11 | 0 | 0.0 | 0.0 | 0.00 | 0.25 | 0.10 | 92 | 1016.2 |
| 20260507024557 | 11 | 0 | 0.0 | 0.0 | 0.00 | 0.28 | 0.10 | 92 | 1016.3 |
| 20260507023051 | 11 | 0 | 0.0 | 0.0 | 0.00 | 0.28 | 0.10 | 91 | 1016.2 |
| 20260507021552 | 11 | 0 | 0.0 | 0.0 | 0.00 | 0.28 | 0.10 | 91 | 1016.2 |
| 20260507020050 | 11 | 0 | 0.0 | 3.2 | 0.00 | 0.28 | 0.10 | 91 | 1016.3 |
| 20260507014552 | 11 | 163 | 1.6 | 6.4 | 0.03 | 0.28 | 0.10 | 92 | 1016.3 |
| 20260507013103 | 11 | 80 | 1.6 | 8.0 | 0.03 | 0.28 | 0.10 | 92 | 1016.5 |
| 20260507011548 | 11 | 0 | 0.0 | 6.4 | 0.03 | 0.28 | 0.10 | 93 | 1016.4 |
| 20260507010051 | 11 | 0 | 0.0 | 3.2 | 0.03 | 0.28 | 0.10 | 93 | 1016.5 |
| 20260507004551 | 11 | 93 | 0.0 | 4.8 | 0.00 | 0.25 | 0.08 | 93 | 1016.6 |
| 20260507003053 | 11 | 0 | 0.0 | 0.0 | 0.00 | 0.25 | 0.08 | 93 | 1016.5 |
| 20260507001607 | 11 | 0 | 0.0 | 0.0 | 0.00 | 0.25 | 0.08 | 93 | 1016.6 |
| 20260507000057 | 11 | 0 | 0.0 | 0.0 | 0.03 | 0.25 | 0.08 | 93 | 1016.7 |
| 20260506234608 | 11 | 0 | 0.0 | 0.0 | 0.05 | 0.25 | 0.08 | 92 | 1016.8 |
| 20260506233056 | 11 | 0 | 0.0 | 0.0 | 0.05 | 0.25 | 0.08 | 92 | 1016.9 |
| 20260506231555 | 11 | 0 | 0.0 | 0.0 | 0.05 | 0.25 | 0.08 | 92 | 1017.1 |
| 20260506230052 | 11 | 0 | 0.0 | 0.0 | 0.05 | 0.23 | 0.05 | 91 | 1017.2 |
| 20260506224607 | 11 | 0 | 0.0 | 0.0 | 0.03 | 0.20 | 0.03 | 91 | 1017.4 |
| 20260506223054 | 11 | 0 | 0.0 | 0.0 | 0.03 | 0.20 | 0.03 | 91 | 1017.5 |
| 20260506221600 | 11 | 0 | 0.0 | 0.0 | 0.03 | 0.20 | 0.03 | 90 | 1017.5 |
| 20260506214551 | 11 | 0 | 0.0 | 0.0 | 0.00 | 0.18 | 0.18 | 88 | 1017.3 |
| 20260506213053 | 12 | 143 | 0.0 | 1.6 | 0.00 | 0.18 | 0.18 | 86 | 1017.2 |
| 20260506211554 | 12 | 0 | 0.0 | 8.0 | 0.00 | 0.18 | 0.18 | 83 | 1017.3 |
| 20260506210051 | 12 | 165 | 0.0 | 6.4 | 0.00 | 0.18 | 0.18 | 81 | 1017.5 |
| 20260506204548 | 12 | 37 | 0.0 | 6.4 | 0.00 | 0.18 | 0.18 | 82 | 1017.9 |
| 20260506203058 | 12 | 0 | 0.0 | 4.8 | 0.00 | 0.18 | 0.18 | 81 | 1017.8 |
| 20260506201545 | 13 | 0 | 0.0 | 6.4 | 0.00 | 0.18 | 0.18 | 81 | 1017.8 |
| 20260506200047 | 13 | 0 | 0.0 | 4.8 | 0.00 | 0.18 | 0.18 | 82 | 1017.8 |
| 20260506194552 | 12 | 0 | 0.0 | 0.0 | 0.00 | 0.18 | 0.18 | 86 | 1017.8 |
| 20260506193052 | 12 | 0 | 0.0 | 0.0 | 0.00 | 0.18 | 0.18 | 85 | 1017.6 |
| 20260506191548 | 12 | 0 | 0.0 | 0.0 | 0.00 | 0.18 | 0.18 | 85 | 1017.3 |
| 20260506190051 | 12 | 0 | 0.0 | 0.0 | 0.00 | 0.18 | 0.18 | 83 | 1017.2 |
| 20260506184550 | 12 | 0 | 0.0 | 0.0 | 0.00 | 0.18 | 0.18 | 85 | 1016.9 |
| 20260506183051 | 13 | 0 | 0.0 | 1.6 | 0.00 | 0.18 | 0.18 | 84 | 1016.7 |
| 20260506181618 | 13 | 0 | 0.0 | 0.0 | 0.00 | 0.18 | 0.18 | 83 | 1016.7 |
| 20260506180055 | 13 | 0 | 0.0 | 0.0 | 0.00 | 0.18 | 0.18 | 81 | 1016.6 |
| 20260506174600 | 13 | 0 | 0.0 | 0.0 | 0.00 | 0.18 | 0.18 | 81 | 1016.4 |
| 20260506173121 | 14 | 0 | 0.0 | 0.0 | 0.00 | 0.18 | 0.18 | 78 | 1016.7 |
| 20260506171553 | 14 | 0 | 0.0 | 1.6 | 0.00 | 0.18 | 0.18 | 77 | 1016.5 |
| 20260506170059 | 15 | 0 | 0.0 | 4.8 | 0.00 | 0.18 | 0.18 | 74 | 1016.3 |
| 20260506164548 | 15 | 166 | 0.0 | 6.4 | 0.00 | 0.18 | 0.18 | 72 | 1016.3 |
| 20260506163055 | 15 | 0 | 0.0 | 4.8 | 0.00 | 0.18 | 0.18 | 73 | 1016.4 |
| 20260506161553 | 16 | 161 | 0.0 | 6.4 | 0.00 | 0.18 | 0.18 | 71 | 1016.3 |
| 20260506160108 | 16 | 0 | 0.0 | 3.2 | 0.00 | 0.18 | 0.18 | 72 | 1016.5 |
| 20260506154549 | 16 | 0 | 0.0 | 3.2 | 0.00 | 0.18 | 0.18 | 70 | 1016.5 |
| 20260506153053 | 16 | 0 | 0.0 | 8.0 | 0.00 | 0.18 | 0.18 | 67 | 1016.5 |
| 20260506151555 | 17 | 0 | 0.0 | 4.8 | 0.00 | 0.18 | 0.18 | 68 | 1016.7 |
| 20260506150050 | 17 | 0 | 0.0 | 8.0 | 0.00 | 0.18 | 0.18 | 67 | 1016.6 |
| 20260506144553 | 17 | 0 | 0.0 | 9.7 | 0.00 | 0.18 | 0.18 | 65 | 1016.7 |
| 20260506143053 | 17 | 0 | 0.0 | 8.0 | 0.00 | 0.18 | 0.18 | 65 | 1016.6 |
| 20260506141554 | 17 | 0 | 0.0 | 1.6 | 0.00 | 0.18 | 0.18 | 69 | 1016.8 |
| 20260506140049 | 17 | 0 | 0.0 | 1.6 | 0.00 | 0.18 | 0.18 | 69 | 1016.5 |
| 20260506134555 | 17 | 0 | 0.0 | 6.4 | 0.00 | 0.18 | 0.18 | 68 | 1016.5 |
| 20260506133113 | 17 | 236 | 0.0 | 6.4 | 0.00 | 0.18 | 0.18 | 64 | 1016.5 |
| 20260506131600 | 18 | 0 | 0.0 | 9.7 | 0.00 | 0.18 | 0.18 | 64 | 1016.5 |
| 20260506130054 | 18 | 200 | 0.0 | 4.8 | 0.00 | 0.18 | 0.18 | 66 | 1016.6 |